Weather History for Hugo, OK

Change the Weather History Date:

Friday, September 7, 2012

  Actual Average Record
Temperature  
Mean Temperature 88 °F -  
Max Temperature 102 °F 91 °F 103 °F (2013)
Min Temperature 74 °F 66 °F 68 °F (2014)
Cooling Degree Days 22    
Growing Degree Days 38 (Base 50)    
Moisture  
Dew Point 65 °F    
Average Humidity 52    
Maximum Humidity 76    
Minimum Humidity 29    
Precipitation  
Precipitation 0.00 in - - ()
Sea Level Pressure  
Sea Level Pressure 29.83 in    
Wind  
Wind Speed 4 mph ()    
Max Wind Speed 21 mph    
Max Gust Speed 32 mph    
Visibility 10.0 miles    
Events      
Averages and records for this station are not official NWS values.
T = Trace of Precipitation, MM = Missing Value Source: Averaged Metar Reports

Daily Weather History Graph

Daily Weather History Graph

Search for Another Location

Airport:

Trip Planner

Search our weather history database for the weather conditions in past years. The results will help you decide how hot, cold, wet, or windy it might be!

Date:

Astronomy

Sep. 07, 2012 Rise Set
Actual Time 7:00 AM CDT 7:39 PM CDT
Civil Twilight 6:34 AM CDT 8:04 PM CDT
Nautical Twilight 6:05 AM CDT 8:34 PM CDT
Astronomical Twilight 5:34 AM CDT 9:04 PM CDT
Moon 11:55 PM CDT (9/7) 1:33 PM CDT (9/7)
Length of Visible Light 13h 29m
Length of Day
12h 38m
Waning Gibbous, 58% of the Moon is Illuminated
Sep 7
Waning Gibbous
Sep 8
Last Quarter
Sep 15
New
Sep 22
First Quarter
Sep 29
Full

Hourly Weather History & Observations

Time (CDT) Temp. Heat Index Dew Point Humidity Pressure Visibility Wind Dir Wind Speed Gust Speed Precip Events Conditions
12:15 AM 82.0 °F 83.3 °F 63.3 °F 53% 29.87 in 10.0 mi Calm Calm - N/A   Clear
12:35 AM 82.4 °F 83.4 °F 62.6 °F 51% 29.87 in 10.0 mi SSE 3.5 mph - N/A   Clear
12:55 AM 81.3 °F 82.7 °F 63.5 °F 55% 29.87 in 10.0 mi Calm Calm - N/A   Clear
1:15 AM 80.6 °F 82.0 °F 63.5 °F 56% 29.88 in 10.0 mi East 3.5 mph - N/A   Clear
1:35 AM 80.1 °F 81.6 °F 63.5 °F 57% 29.87 in 10.0 mi Calm Calm - N/A   Clear
1:55 AM 79.7 °F - 64.0 °F 59% 29.87 in 10.0 mi Calm Calm - N/A   Clear
2:15 AM 78.8 °F - 64.0 °F 60% 29.86 in 10.0 mi Calm Calm - N/A   Clear
2:35 AM 78.1 °F - 63.7 °F 61% 29.86 in 10.0 mi Calm Calm - N/A   Clear
2:55 AM 77.9 °F - 64.0 °F 62% 29.86 in 10.0 mi Calm Calm - N/A   Clear
3:15 AM 77.4 °F - 64.6 °F 65% 29.86 in 10.0 mi Calm Calm - N/A   Clear
3:35 AM 77.2 °F - 64.6 °F 65% 29.86 in 10.0 mi Calm Calm - N/A   Scattered Clouds
3:55 AM 75.6 °F - 65.5 °F 71% 29.86 in 10.0 mi Calm Calm - N/A   Clear
4:15 AM 76.1 °F - 64.8 °F 68% 29.86 in 10.0 mi Calm Calm - N/A   Clear
4:35 AM 75.7 °F - 65.1 °F 69% 29.86 in 10.0 mi Calm Calm - N/A   Clear
4:55 AM 76.1 °F - 64.9 °F 68% 29.86 in 10.0 mi East 4.6 mph - N/A   Clear
5:15 AM 76.1 °F - 65.3 °F 69% 29.85 in 10.0 mi East 3.5 mph - N/A   Clear
5:35 AM 75.4 °F - 65.3 °F 71% 29.86 in 10.0 mi ESE 4.6 mph - N/A   Clear
5:55 AM 75.2 °F - 65.7 °F 72% 29.86 in 10.0 mi ESE 4.6 mph - N/A   Clear
6:15 AM 75.2 °F - 65.7 °F 72% 29.86 in 10.0 mi Calm Calm - N/A   Clear
6:35 AM 74.7 °F - 65.8 °F 74% 29.86 in 10.0 mi ESE 3.5 mph - N/A   Clear
6:55 AM 74.8 °F - 65.7 °F 73% 29.87 in 10.0 mi Calm Calm - N/A   Clear
7:15 AM 74.3 °F - 66.2 °F 76% 29.88 in 10.0 mi ESE 3.5 mph - N/A   Scattered Clouds
7:35 AM 75.4 °F - 66.6 °F 74% 29.88 in 10.0 mi ESE 6.9 mph - N/A   Mostly Cloudy
7:55 AM 76.1 °F - 66.6 °F 72% 29.88 in 10.0 mi SE 4.6 mph - N/A   Scattered Clouds
8:15 AM 77.9 °F - 67.1 °F 69% 29.88 in 10.0 mi Calm Calm - N/A   Clear
8:35 AM 80.1 °F 82.6 °F 67.6 °F 66% 29.88 in 10.0 mi Calm Calm - N/A   Clear
8:55 AM 82.0 °F 85.1 °F 68.4 °F 63% 29.89 in 10.0 mi Calm Calm - N/A   Scattered Clouds
9:15 AM 83.8 °F 87.3 °F 68.5 °F 60% 29.89 in 10.0 mi Calm Calm - N/A   Mostly Cloudy
9:35 AM 85.3 °F 88.5 °F 68.0 °F 56% 29.89 in 10.0 mi SSE 4.6 mph - N/A   Clear
9:55 AM 86.0 °F 89.1 °F 67.8 °F 54% 29.89 in 10.0 mi Calm Calm - N/A   Clear
10:15 AM 88.2 °F 91.7 °F 68.0 °F 51% 29.88 in 10.0 mi SW 3.5 mph - N/A   Clear
10:35 AM 89.6 °F 93.4 °F 68.0 °F 49% 29.88 in 10.0 mi WSW 5.8 mph - N/A   Clear
10:55 AM 91.2 °F 95.0 °F 68.0 °F 46% 29.88 in 10.0 mi SW 5.8 mph - N/A   Clear
11:15 AM 93.0 °F 96.9 °F 67.8 °F 43% 29.88 in 10.0 mi SW 4.6 mph - N/A   Clear
11:35 AM 94.8 °F 99.8 °F 68.2 °F 42% 29.87 in 10.0 mi SW 6.9 mph - N/A   Clear
11:55 AM 95.5 °F 100.6 °F 68.2 °F 41% 29.86 in 10.0 mi SSW 5.8 mph - N/A   Clear
12:15 PM 96.8 °F 100.7 °F 66.7 °F 37% 29.85 in 10.0 mi North - - N/A   Clear
12:35 PM 98.4 °F 102.5 °F 66.2 °F 35% 29.85 in 10.0 mi SW 12.7 mph 17.3 mph N/A   Clear
12:55 PM 99.5 °F 103.2 °F 66.0 °F 33% 29.84 in 10.0 mi SW 12.7 mph 18.4 mph N/A   Clear
1:15 PM 99.9 °F 103.9 °F 65.7 °F 33% 29.83 in 10.0 mi North - - N/A   Clear
1:35 PM 100.0 °F 103.6 °F 64.9 °F 32% 29.82 in 10.0 mi WSW 4.6 mph - N/A   Clear
1:55 PM 100.8 °F 104.3 °F 64.8 °F 31% 29.81 in 10.0 mi SW 5.8 mph - N/A   Clear
2:15 PM 101.5 °F 105.6 °F 65.3 °F 31% 29.80 in 10.0 mi SSW 9.2 mph 16.1 mph N/A   Clear
2:35 PM 100.9 °F 103.3 °F 63.3 °F 29% 29.80 in 10.0 mi SSW 8.1 mph 19.6 mph N/A   Scattered Clouds
2:55 PM 101.5 °F 104.9 °F 64.8 °F 30% 29.79 in 10.0 mi South 8.1 mph - N/A   Scattered Clouds
3:15 PM 101.7 °F 104.6 °F 63.9 °F 29% 29.78 in 10.0 mi SW 10.4 mph 17.3 mph N/A   Scattered Clouds
3:35 PM 100.2 °F 102.7 °F 63.7 °F 30% 29.77 in 10.0 mi SW 5.8 mph - N/A   Scattered Clouds
3:55 PM 100.2 °F 102.7 °F 63.3 °F 30% 29.76 in 10.0 mi SW 8.1 mph 17.3 mph N/A   Scattered Clouds
4:15 PM 101.3 °F 104.6 °F 64.8 °F 30% 29.75 in 10.0 mi SSW 8.1 mph 17.3 mph N/A   Scattered Clouds
4:55 PM 100.9 °F 103.3 °F 63.7 °F 29% 29.73 in 10.0 mi SSW 15.0 mph 19.6 mph N/A   Clear
5:15 PM 101.3 °F 104.6 °F 64.2 °F 30% 29.73 in 10.0 mi SSW 11.5 mph 17.3 mph N/A   Clear
5:35 PM 100.8 °F 103.6 °F 63.9 °F 30% 29.73 in 10.0 mi SSW 11.5 mph 16.1 mph N/A   Clear
5:55 PM 100.4 °F 102.4 °F 63.1 °F 29% 29.73 in 10.0 mi WSW 9.2 mph 17.3 mph N/A   Clear
6:15 PM 99.9 °F 102.1 °F 63.3 °F 30% 29.73 in 10.0 mi North - - N/A   Clear
6:35 PM 98.6 °F 100.5 °F 63.0 °F 31% 29.72 in 10.0 mi SSW 10.4 mph - N/A   Clear
6:55 PM 97.2 °F 98.6 °F 62.8 °F 32% 29.72 in 10.0 mi SW 8.1 mph - N/A   Clear
7:15 PM 96.4 °F 97.9 °F 63.0 °F 33% 29.71 in 10.0 mi SW 6.9 mph - N/A   Clear
7:35 PM 95.5 °F 96.9 °F 63.3 °F 34% 29.71 in 10.0 mi SSW 5.8 mph - N/A   Clear
7:55 PM 95.0 °F 96.5 °F 63.3 °F 35% 29.70 in 10.0 mi SSW 6.9 mph - N/A   Clear
8:15 PM 93.9 °F 95.2 °F 63.5 °F 36% 29.74 in 10.0 mi WNW 18.4 mph 24.2 mph N/A   Scattered Clouds
8:35 PM 84.0 °F 86.8 °F 67.5 °F 57% 29.78 in 10.0 mi North 20.7 mph 32.2 mph N/A   Mostly Cloudy
8:55 PM 80.1 °F 82.7 °F 68.2 °F 67% 29.80 in 10.0 mi North 17.3 mph 28.8 mph N/A   Mostly Cloudy
9:15 PM 79.0 °F - 68.5 °F 70% 29.83 in 10.0 mi North 20.7 mph 32.2 mph N/A   Mostly Cloudy
9:35 PM 78.1 °F - 68.9 °F 73% 29.85 in 10.0 mi North 17.3 mph 27.6 mph N/A   Overcast
9:55 PM 77.9 °F - 68.2 °F 72% 29.86 in 10.0 mi North 12.7 mph 19.6 mph N/A   Overcast
10:55 PM 77.0 °F - 66.6 °F 70% 29.90 in 10.0 mi North 15.0 mph 25.3 mph N/A   Clear
11:35 PM 75.4 °F - 65.7 °F 72% 29.90 in 10.0 mi NNE 11.5 mph 18.4 mph N/A   Mostly Cloudy
11:55 PM 74.8 °F - 65.3 °F 72% 29.92 in 10.0 mi North 11.5 mph 18.4 mph N/A   Scattered Clouds